SENTINEL-5P (42969 NORAD) Tracking and Keplerian Element Data
This shows tracking and keplerian element data for the satellite.
Feedback or suggestion? Click here.
Element | Value |
Catalog | 42969 |
Name | SENTINEL-5P |
Epoch Orbit | 16955 |
Epoch Day | 20.55611853 |
Epoch Year | 2021 |
RAAN | 322.535 |
Inclination | 98.724 |
Eccentricity | 0.0001071 |
Argument of Perigee | 83.4789 |
Mean Anonmoly | 276.6509 |
Mean Motion | 14.1954941 |
Decay Rate | -1.7E-07 |
L1 | 1 42969U 17064A 21020.55611853 -.00000017 00000-0 12739-4 0 9992 |
L2 | 2 42969 98.7240 322.5350 0001071 83.4789 276.6509 14.19549410169559 |
Live tracking and technical data element details for SENTINEL-5P (NORAD 42969). SENTINEL-5P can be tracked NOW for your location showing map with azimuth and elevation plus other details from your city location.
Track the satellite on the map from your city or location and see movement details for azimuth, elevation, latitude, longitude, range, height, and movement on the map or in text.
IsCatalogInMostPopularTable: catalog: 42969, numindb: 799
Update: records affected: 1
GetName: 42969 SENTINEL-5P
Hit Count: updated at: Sat, 23 Jan 2021 04:45:10 GMT